CW5444 Weather Reports


time (UTC)temp
C
wind
direction
speed
KPH
gust
KPH
rain 1hr
cm
rain 24hr
cm
rain mn
cm
humidity
%
barometer
mb
20260503054424 5 200 3.2 6.4 0.00 0.00 0.00 67 1017.0
20260503053427 5 198 4.8 8.0 0.00 0.00 0.00 69 1017.0
20260503052432 4 225 3.2 4.8 0.00 0.00 0.00 71 1017.0
20260503051413 3 234 1.6 4.8 0.00 0.00 0.00 73 1016.9
20260503050414 3 234 1.6 6.4 0.00 0.00 0.00 76 1016.8
20260503045414 2 242 1.6 9.7 0.00 0.00 0.00 77 1016.7
20260503044435 2 220 0.0 0.0 0.00 0.00 0.00 76 1016.6
20260503043415 3 220 0.0 0.0 0.00 0.00 0.00 76 1016.6
20260503042417 3 220 0.0 1.6 0.00 0.00 0.00 74 1016.4
20260503041422 3 220 0.0 4.8 0.00 0.00 0.00 74 1016.6
20260503040439 3 220 1.6 4.8 0.00 0.00 0.00 75 1016.4
20260503035419 3 220 0.0 3.2 0.00 0.00 0.00 75 1016.5
20260503034418 3 220 1.6 1.6 0.00 0.00 0.00 73 1016.4
20260503033422 4 220 1.6 1.6 0.00 0.00 0.00 71 1016.3
20260503032422 5 220 1.6 3.2 0.00 0.00 0.00 70 1016.3
20260503031424 5 220 0.0 4.8 0.00 0.00 0.00 68 1016.2
20260503030431 5 220 1.6 3.2 0.00 0.00 0.00 68 1016.1
20260503025431 5 220 0.0 1.6 0.00 0.00 0.00 65 1016.1
20260503024452 6 220 1.6 3.2 0.00 0.00 0.00 64 1016.1
20260503023451 6 219 1.6 4.8 0.00 0.00 0.00 64 1016.0
20260503022452 6 219 0.0 3.2 0.00 0.00 0.00 63 1015.9
20260503021432 6 219 0.0 3.2 0.00 0.00 0.00 63 1015.8
20260503020450 6 220 0.0 3.2 0.00 0.00 0.00 62 1015.8
20260503015429 6 226 3.2 4.8 0.00 0.00 0.00 61 1015.8
20260503014429 6 237 1.6 4.8 0.00 0.00 0.00 62 1015.8
20260503013415 6 207 1.6 4.8 0.00 0.00 0.00 62 1015.6
20260503012416 6 195 0.0 3.2 0.00 0.00 0.00 64 1015.6
20260503011418 7 195 0.0 3.2 0.00 0.00 0.00 61 1015.5
20260503010418 7 195 1.6 4.8 0.00 0.00 0.00 59 1015.3
20260503005420 7 195 3.2 4.8 0.00 0.00 0.00 58 1015.5
20260503004420 8 196 1.6 4.8 0.00 0.00 0.00 57 1015.3
20260503003426 8 196 0.0 6.4 0.00 0.00 0.00 55 1015.1
20260503002425 8 226 1.6 3.2 0.00 0.00 0.00 54 1015.0
20260503001427 8 226 3.2 6.4 0.00 0.00 0.00 52 1014.8
20260503000430 9 166 3.2 9.7 0.00 0.00 0.00 52 1014.7
20260502235428 9 216 3.2 6.4 0.00 0.00 0.00 51 1014.8
20260502234428 10 201 3.2 8.0 0.00 0.00 0.00 50 1014.8
20260502233432 10 203 4.8 8.0 0.00 0.00 0.00 50 1014.6
20260502232413 11 262 1.6 9.7 0.00 0.00 0.00 49 1014.4
20260502231413 11 194 3.2 12.9 0.00 0.00 0.00 49 1014.5
20260502230414 11 187 4.8 12.9 0.00 0.00 0.00 49 1014.5
20260502225417 11 315 6.4 14.5 0.00 0.00 0.00 50 1014.5
20260502224418 11 274 4.8 16.1 0.00 0.00 0.00 51 1014.5
20260502223423 11 239 8.0 19.3 0.00 0.00 0.00 50 1014.5
20260502222423 10 44 9.7 22.5 0.00 0.00 0.00 48 1014.4
20260502221426 11 219 9.7 20.9 0.00 0.00 0.00 46 1014.2
20260502220428 11 241 4.8 17.7 0.00 0.00 0.00 45 1014.2
20260502215430 12 245 8.0 19.3 0.00 0.00 0.00 47 1014.1
20260502214429 12 360 9.7 20.9 0.00 0.00 0.00 44 1013.8
20260502213415 11 240 6.4 19.3 0.00 0.00 0.00 48 1013.6
20260502212416 11 257 4.8 12.9 0.00 0.00 0.00 49 1013.6
20260502211436 11 344 4.8 12.9 0.00 0.00 0.00 47 1013.5
20260502210416 11 277 6.4 12.9 0.00 0.00 0.00 48 1013.5
20260502205418 11 236 6.4 12.9 0.00 0.00 0.00 47 1013.5
20260502204419 11 211 4.8 20.9 0.00 0.00 0.00 47 1013.5
20260502203418 11 232 8.0 19.3 0.00 0.00 0.00 47 1013.7
20260502202423 11 307 6.4 16.1 0.00 0.00 0.00 46 1013.7
20260502201443 12 206 11.3 17.7 0.00 0.00 0.00 46 1013.6
20260502200422 12 13 6.4 16.1 0.00 0.00 0.00 51 1013.6
20260502195421 12 274 8.0 14.5 0.00 0.00 0.00 50 1013.7
20260502194424 11 275 8.0 19.3 0.00 0.00 0.00 45 1013.7
20260502193425 11 201 6.4 16.1 0.00 0.00 0.00 46 1013.9
20260502192445 12 243 6.4 14.5 0.00 0.00 0.00 43 1013.9
20260502191424 13 219 8.0 16.1 0.00 0.00 0.00 47 1013.9
20260502190429 13 311 9.7 22.5 0.00 0.00 0.00 43 1013.8
20260502185429 13 253 8.0 19.3 0.00 0.00 0.00 48 1013.7
20260502184451 13 261 6.4 27.4 0.00 0.00 0.00 45 1013.8
20260502183450 12 242 6.4 17.7 0.00 0.00 0.00 43 1013.7
20260502182450 12 178 8.0 24.1 0.00 0.00 0.00 46 1013.8
20260502181428 12 236 6.4 20.9 0.00 0.00 0.00 41 1013.9
20260502180431 12 191 6.4 12.9 0.00 0.00 0.00 43 1013.9
20260502170440 12 275 9.7 17.7 0.00 0.00 0.00 46 1014.2
20260502163426 12 330 4.8 12.9 0.00 0.00 0.00 45 1014.4
20260502162447 12 196 6.4 12.9 0.00 0.00 0.00 49 1014.5
20260502161429 11 208 6.4 14.5 0.00 0.00 0.00 49 1014.6
20260502160429 11 319 6.4 16.1 0.00 0.00 0.00 49 1014.7
20260502151433 10 346 6.4 17.7 0.00 0.00 0.00 53 1015.0
20260502150433 10 277 6.4 12.9 0.00 0.00 0.00 55 1015.1
20260502130427 7 346 4.8 12.9 0.00 0.00 0.00 62 1015.0
20260502123427 7 14 4.8 14.5 0.00 0.00 0.00 62 1014.8
20260502122429 7 350 4.8 9.7 0.00 0.00 0.00 62 1014.8
20260502121430 7 338 4.8 8.0 0.00 0.00 0.00 62 1014.7
20260502120416 6 317 4.8 9.7 0.00 0.00 0.00 64 1014.6
20260502115417 6 342 3.2 6.4 0.00 0.00 0.00 64 1014.7
20260502114418 6 346 1.6 6.4 0.00 0.00 0.00 65 1014.7
20260502113419 6 342 3.2 8.0 0.00 0.00 0.00 64 1014.7
20260502112416 6 340 3.2 6.4 0.00 0.00 0.00 64 1014.8
20260502111436 6 300 3.2 6.4 0.00 0.00 0.00 63 1014.7
20260502110438 6 342 1.6 4.8 0.00 0.00 0.00 64 1014.7
20260502105455 6 340 3.2 4.8 0.00 0.00 0.00 64 1014.5
20260502104437 6 340 3.2 4.8 0.00 0.00 0.00 66 1014.6
20260502103419 7 342 1.6 4.8 0.00 0.00 0.00 68 1014.6
20260502102418 7 336 1.6 4.8 0.00 0.00 0.00 69 1014.5
20260502101417 7 336 3.2 6.4 0.00 0.00 0.00 69 1014.4
20260502100418 7 233 3.2 6.4 0.00 0.00 0.00 70 1014.5
20260502091427 7 232 0.0 3.2 0.00 0.00 0.00 67 1014.8
20260502090448 7 232 0.0 3.2 0.00 0.00 0.00 66 1015.0
20260502071428 8 319 3.2 6.4 0.00 0.00 0.00 69 1014.6
20260502070429 9 360 3.2 8.0 0.00 0.00 0.00 69 1014.4
20260502065431 9 347 3.2 11.3 0.00 0.00 0.00 69 1014.4
20260502064434 9 355 3.2 8.0 0.00 0.00 0.00 69 1014.4
20260502063415 9 346 3.2 8.0 0.00 0.00 0.00 69 1014.6